User: anonymous   Login
Location: Unspecified
(0.0000°N, 0.0000°E)
Time: 02:59:26
(UTC+00:00)
Language:

Explorer 38 - Orbit

View from above orbital plane
View from above orbital plane
View from above satellite
View from above satellite

Ground track
Ground track

The orbit data is extracted from the following two-line orbital elements,

1 03307U 68055A   18171.64890791 -.00000010  00000-0  00000+0 0  9990
2 03307 120.8645  71.8659 0014039 169.7549 190.3340  6.42585526172019
Epoch (UTC): 20 June 2018 15:34:25
Eccentricity: 0.0014039
inclination: 120.8645°
perigee height: 5826 km
apogee height: 5860 km
right ascension of ascending node: 71.8659°
argument of perigee: 169.7549°
revolutions per day: 6.42585526
mean anomaly at epoch: 190.3340°
orbit number at epoch: 17201

The dashed part of the orbit path shows where the satellite is in the earth's shadow,  

DLR